Wadena, MN

1:12 PM CST on December 15, 2017 (GMT -0600)
Wadena Municipal

Weather History for KADC - January, 2013

Change the Weather History Date:

Wednesday, January 30, 2013

  Actual Average Record
Temperature  
Mean Temperature 5 °F -  
Max Temperature 12 °F 19 °F 43 °F (1992)
Min Temperature -2 °F -4 °F -33 °F (1951)
Degree Days  
Heating Degree Days 60    
Moisture  
Dew Point 0 °F    
Average Humidity 80    
Maximum Humidity 92    
Minimum Humidity 71    
Precipitation  
Precipitation 0.00 in - - ()
Sea Level Pressure  
Sea Level Pressure 29.75 in    
Wind  
Wind Speed 14 mph (NW)    
Max Wind Speed 21 mph    
Max Gust Speed 25 mph    
Visibility 9 miles    
Events Snow    
Averages and records for this station are not official NWS values.
T = Trace of Precipitation, MM = Missing Value Source: NWS Daily Summary

Daily Weather History Graph

Daily Weather History Graph

Search for Another Location

Airport or City:

Trip Planner

Search our weather history database for the weather conditions in past years. The results will help you decide how hot, cold, wet, or windy it might be!

Date:

Astronomy

Jan. 30, 2013 Rise Set
Actual Time 7:46 AM CST 5:22 PM CST
Civil Twilight 7:14 AM CST 5:54 PM CST
Nautical Twilight 6:37 AM CST 6:31 PM CST
Astronomical Twilight 6:02 AM CST 7:06 PM CST
Moon 9:40 PM CST (1/30) 8:58 AM CST (1/30)
Length of Visible Light 10h 40m
Length of Day
9h 36m
Waning Gibbous, 87% of the Moon is Illuminated
Jan 30
Waning Gibbous
Feb 3
Last Quarter
Feb 10
New
Feb 17
First Quarter
Feb 25
Full

Hourly Weather History & Observations

Time (CST) Temp. Windchill Dew Point Humidity Pressure Visibility Wind Dir Wind Speed Gust Speed Precip Events Conditions
12:14 AM 12.2 °F -3.7 °F 8.6 °F 85% 29.80 in 10.0 mi NNW 15.0 mph 19.6 mph N/A   Overcast
12:35 AM 10.4 °F -6.0 °F 8.6 °F 92% 29.80 in 10.0 mi NW 15.0 mph 20.7 mph N/A Snow Light Snow
12:53 AM 10.4 °F -6.0 °F 6.8 °F 85% 29.79 in 10.0 mi NNW 15.0 mph - N/A Snow Light Snow
1:15 AM 10.4 °F -6.0 °F 6.8 °F 85% 29.78 in 10.0 mi NW 15.0 mph - N/A   Overcast
1:35 AM 10.4 °F -6.0 °F 6.8 °F 85% 29.78 in 10.0 mi NNW 15.0 mph 19.6 mph N/A   Overcast
1:53 AM 10.4 °F -4.8 °F 6.8 °F 85% 29.77 in 10.0 mi NW 12.7 mph 17.3 mph N/A   Overcast
2:15 AM 8.6 °F -7.0 °F 6.8 °F 92% 29.77 in 10.0 mi NNW 12.7 mph - N/A   Overcast
2:34 AM 8.6 °F -5.5 °F 6.8 °F 92% 29.78 in 7.0 mi NNW 10.4 mph - N/A Snow Light Snow
2:53 AM 8.6 °F -7.7 °F 5.0 °F 85% 29.77 in 10.0 mi NNW 13.8 mph - N/A Snow Light Snow
3:15 AM 8.6 °F -6.3 °F 5.0 °F 85% 29.76 in 7.0 mi NW 11.5 mph - N/A Snow Light Snow
3:35 AM 8.6 °F -7.0 °F 3.2 °F 79% 29.76 in 10.0 mi NW 12.7 mph - N/A Snow Light Snow
3:53 AM 8.6 °F -8.3 °F 3.2 °F 79% 29.77 in 10.0 mi NW 15.0 mph - N/A Snow Light Snow
4:15 AM 8.6 °F -7.0 °F 3.2 °F 79% 29.77 in 10.0 mi NW 12.7 mph - N/A Snow Light Snow
4:35 AM 8.6 °F -7.0 °F 3.2 °F 79% 29.78 in 10.0 mi NW 12.7 mph - N/A Snow Light Snow
4:53 AM 6.8 °F -10.0 °F 3.2 °F 85% 29.78 in 10.0 mi NW 13.8 mph - N/A Snow Light Snow
5:14 AM 6.8 °F -10.7 °F 3.2 °F 85% 29.77 in 10.0 mi NW 15.0 mph 19.6 mph N/A Snow Light Snow
5:35 AM 6.8 °F -11.3 °F 3.2 °F 85% 29.76 in 10.0 mi NW 16.1 mph - N/A Snow Light Snow
5:53 AM 6.8 °F -10.0 °F 1.4 °F 79% 29.76 in 10.0 mi NW 13.8 mph 19.6 mph N/A Snow Light Snow
6:14 AM 6.8 °F -11.8 °F 1.4 °F 79% 29.76 in 10.0 mi NNW 17.3 mph 21.9 mph N/A Snow Light Snow
6:35 AM 6.8 °F -11.3 °F 1.4 °F 79% 29.75 in 10.0 mi NW 16.1 mph - N/A   Overcast
6:53 AM 6.8 °F -10.7 °F 1.4 °F 79% 29.75 in 10.0 mi NW 15.0 mph - N/A   Overcast
7:15 AM 5.0 °F -10.8 °F 1.4 °F 85% 29.75 in 10.0 mi NW 11.5 mph - N/A   Overcast
7:35 AM 5.0 °F -10.8 °F 1.4 °F 85% 29.75 in 10.0 mi NW 11.5 mph - N/A   Overcast
7:53 AM 5.0 °F -11.6 °F 1.4 °F 85% 29.76 in 10.0 mi NW 12.7 mph - N/A   Overcast
8:15 AM 5.0 °F -12.3 °F 1.4 °F 85% 29.76 in 10.0 mi NW 13.8 mph - N/A   Overcast
8:35 AM 5.0 °F -12.3 °F 1.4 °F 85% 29.76 in 10.0 mi NW 13.8 mph 17.3 mph N/A   Overcast
8:52 AM 5.0 °F -13.0 °F 1.4 °F 85% 29.75 in 10.0 mi NW 15.0 mph - N/A   Overcast
9:14 AM 5.0 °F -13.6 °F -0.4 °F 78% 29.75 in 10.0 mi NW 16.1 mph 19.6 mph N/A   Overcast
9:35 AM 5.0 °F -13.6 °F -0.4 °F 78% 29.74 in 10.0 mi NW 16.1 mph - N/A   Overcast
9:53 AM 5.0 °F -13.0 °F -0.4 °F 78% 29.74 in 10.0 mi NW 15.0 mph - N/A   Overcast
10:15 AM 5.0 °F -11.6 °F -0.4 °F 78% 29.75 in 10.0 mi NW 12.7 mph - N/A   Overcast
10:35 AM 5.0 °F -12.3 °F -0.4 °F 78% 29.75 in 10.0 mi NW 13.8 mph 19.6 mph N/A   Overcast
10:52 AM 5.0 °F -12.3 °F -0.4 °F 78% 29.75 in 10.0 mi WNW 13.8 mph - N/A   Overcast
11:15 AM 5.0 °F -10.8 °F -0.4 °F 78% 29.76 in 10.0 mi NW 11.5 mph - N/A Snow Light Snow
11:35 AM 5.0 °F -9.1 °F -0.4 °F 78% 29.75 in 7.0 mi WNW 9.2 mph 16.1 mph N/A Snow Light Snow
11:53 AM 5.0 °F -13.0 °F -0.4 °F 78% 29.75 in 10.0 mi NW 15.0 mph - N/A   Overcast
12:15 PM 5.0 °F -11.6 °F -0.4 °F 78% 29.74 in 10.0 mi NW 12.7 mph - N/A Snow Light Snow
12:35 PM 5.0 °F -13.0 °F -0.4 °F 78% 29.74 in 10.0 mi NW 15.0 mph - N/A   Overcast
12:53 PM 5.0 °F -13.0 °F -0.4 °F 78% 29.73 in 10.0 mi NW 15.0 mph - N/A   Overcast
1:15 PM 5.0 °F -13.6 °F -0.4 °F 78% 29.72 in 10.0 mi WNW 16.1 mph - N/A   Overcast
1:35 PM 6.8 °F -10.7 °F -0.4 °F 72% 29.72 in 10.0 mi WNW 15.0 mph - N/A   Overcast
1:52 PM 6.8 °F -11.8 °F -0.4 °F 72% 29.72 in 7.0 mi NW 17.3 mph - N/A   Overcast
2:14 PM 6.8 °F -11.8 °F -0.4 °F 72% 29.72 in 7.0 mi NW 17.3 mph 21.9 mph N/A   Overcast
2:34 PM 6.8 °F -10.7 °F -0.4 °F 72% 29.72 in 10.0 mi NW 15.0 mph 20.7 mph N/A   Overcast
2:53 PM 6.8 °F -11.8 °F -0.4 °F 72% 29.72 in 10.0 mi WNW 17.3 mph 21.9 mph N/A   Overcast
3:15 PM 6.8 °F -10.7 °F -0.4 °F 72% 29.72 in 10.0 mi WNW 15.0 mph - N/A   Overcast
3:35 PM 6.8 °F -11.8 °F -0.4 °F 72% 29.72 in 10.0 mi WNW 17.3 mph 21.9 mph N/A   Overcast
3:53 PM 5.0 °F -13.6 °F -0.4 °F 78% 29.72 in 10.0 mi NW 16.1 mph - N/A   Overcast
4:15 PM 5.0 °F -13.0 °F -0.4 °F 78% 29.73 in 7.0 mi NW 15.0 mph 20.7 mph N/A   Overcast
4:35 PM 5.0 °F -12.3 °F -0.4 °F 78% 29.73 in 5.0 mi NW 13.8 mph 21.9 mph N/A Snow Light Snow
4:53 PM 5.0 °F -14.2 °F -0.4 °F 78% 29.73 in 4.0 mi NW 17.3 mph - N/A Snow Light Snow
5:15 PM 3.2 °F -16.5 °F -2.2 °F 78% 29.73 in 2.5 mi NW 17.3 mph 24.2 mph N/A Snow Light Snow
5:35 PM 3.2 °F -15.9 °F -2.2 °F 78% 29.74 in 3.0 mi NW 16.1 mph 23.0 mph N/A Snow Light Snow
5:52 PM 3.2 °F -14.6 °F -2.2 °F 78% 29.74 in 7.0 mi NW 13.8 mph 19.6 mph N/A   Overcast
6:14 PM 3.2 °F -13.1 °F -2.2 °F 78% 29.74 in 7.0 mi NW 11.5 mph - N/A   Overcast
6:34 PM 1.4 °F -18.2 °F -4.0 °F 78% 29.74 in 10.0 mi NW 16.1 mph - N/A   Mostly Cloudy
6:53 PM 1.4 °F -18.2 °F -4.0 °F 78% 29.74 in 10.0 mi NW 16.1 mph 20.7 mph N/A   Mostly Cloudy
7:15 PM 1.4 °F -16.1 °F -4.0 °F 78% 29.74 in 10.0 mi NW 12.7 mph - N/A   Overcast
7:35 PM 1.4 °F -13.5 °F -4.0 °F 78% 29.74 in 10.0 mi NW 9.2 mph - N/A   Overcast
7:53 PM 1.4 °F -18.2 °F -4.0 °F 78% 29.74 in 10.0 mi WNW 16.1 mph - N/A   Overcast
8:15 PM 1.4 °F -20.5 °F -4.0 °F 78% 29.74 in 5.0 mi NW 20.7 mph 24.2 mph N/A   Haze
8:35 PM 1.4 °F -15.3 °F -4.0 °F 78% 29.74 in 7.0 mi WNW 11.5 mph 24.2 mph N/A   Overcast
8:53 PM -0.4 °F -19.9 °F -5.8 °F 78% 29.74 in 7.0 mi NW 15.0 mph 25.3 mph N/A   Overcast
9:14 PM -0.4 °F -21.2 °F -5.8 °F 78% 29.74 in 4.0 mi NW 17.3 mph 21.9 mph N/A Snow Light Snow
9:35 PM -2.2 °F -21.5 °F -7.6 °F 78% 29.75 in 7.0 mi NW 13.8 mph 23.0 mph N/A Snow Light Snow
9:52 PM -2.2 °F -22.2 °F -7.6 °F 78% 29.75 in 10.0 mi WNW 15.0 mph 18.4 mph N/A   Overcast
10:14 PM -2.2 °F -22.9 °F -7.6 °F 78% 29.75 in 10.0 mi WNW 16.1 mph 20.7 mph N/A   Overcast
10:35 PM -2.2 °F -21.5 °F -7.6 °F 78% 29.76 in 10.0 mi NW 13.8 mph - N/A   Overcast
10:53 PM -2.2 °F -21.5 °F -9.4 °F 71% 29.76 in 5.0 mi NW 13.8 mph 18.4 mph N/A Snow Light Snow
11:15 PM -2.2 °F -22.2 °F -7.6 °F 78% 29.76 in 10.0 mi WNW 15.0 mph 19.6 mph N/A   Overcast
11:35 PM -2.2 °F -22.9 °F -7.6 °F 78% 29.76 in 10.0 mi NW 16.1 mph 24.2 mph N/A   Overcast
11:53 PM -2.2 °F -22.2 °F -7.6 °F 78% 29.76 in 10.0 mi WNW 15.0 mph 19.6 mph N/A   Overcast